Flag for Brazil Weather past 2 weeks in Santarém, Para, Brazil

Now
73 °F

Partly sunny.


Feels Like: 70 °F
Forecast: 75 / 96 °F
Wind: 6 mph from Southeast

Location: Santarem-Aeroporto

Current Time: Oct 22, 2014 at 7:23:41 AM

Latest Report: Oct 22, 2014 at 7:00 AM


Visibility: N/A

Pressure: 29.86 "Hg

Humidity: 94%

Dew point: 72 °F

Location of SantarémLocation

Historic Weather in Santarém — Graph

°F

Santarém temperature yesterday

Maximum temperature yesterday: 86 °F (at 5:00 PM)
Minimum temperature yesterday: 73 °F (at 2:00 AM)
Average temperature yesterday: 78 °F

Past Weeks' High & Low Weather Summary

 TemperatureHumidityPressure
High93 °F (Oct 12, 3:00 PM)100% (Oct 16, 2:00 AM)29.95 "Hg (Oct 16, 2:00 AM)
Low73 °F (Oct 16, 4:00 AM)44% (Oct 20, 4:00 PM)29.68 "Hg (Oct 9, 5:00 PM)
Average84 °F75%29.84 "Hg
* Reported Oct 7 6:00 AM — Oct 22 6:00 AM, Santarém, Weather by CustomWeather, © 2014

Note: Actual official high and low records may vary slightly from our data, if they occured in-between our weather recording intervals... More about our weather records

Advertising

Santarém weather history for previous 24 hours

 ConditionsComfort  
Time TempWeatherWind HumidityBarometerVisibility
6:00 AM
Oct 22
73 °FThundershowers. Passing clouds.3 mph94%29.83 "HgN/A
5:00 AM73 °FThundershowers. Passing clouds.No wind94%29.83 "HgN/A
4:00 AM73 °FThundershowers. Passing clouds.2 mph94%29.83 "HgN/A
3:00 AM73 °FThundershowers. Passing clouds.No wind94%29.83 "HgN/A
1:00 AM73 °FClear.No wind100%29.86 "Hg10 mi
12:00 AM73 °FClear.2 mph100%29.89 "Hg10 mi
11:00 PM
Oct 21
75 °FPassing clouds.2 mph94%29.89 "HgN/A
10:00 PM75 °FPassing clouds.No wind94%29.86 "HgN/A
9:00 PM75 °FClear.No wind94%29.83 "Hg10 mi
8:00 PM75 °FClear.No wind100%29.80 "Hg10 mi
7:00 PM79 °FPassing clouds.No wind89%29.77 "HgN/A
6:00 PM86 °FScattered clouds.No wind70%29.77 "HgN/A
5:00 PM86 °FScattered clouds.No wind62%29.77 "HgN/A
4:00 PM84 °FPartly sunny.3 mph74%29.77 "HgN/A
3:00 PM84 °FPartly sunny.5 mph66%29.80 "HgN/A
2:00 PM84 °FPartly sunny.8 mph70%29.83 "HgN/A
1:00 PM75 °FLight rain. Broken clouds.5 mph94%29.86 "HgN/A
12:00 PM79 °FBroken clouds.12 mph89%29.92 "HgN/A
11:00 AM77 °FBroken clouds.8 mph94%29.95 "HgN/A
10:00 AM75 °FBroken clouds.7 mph94%29.95 "HgN/A
9:00 AM73 °FLight rain. Broken clouds.9 mph100%29.92 "Hg3 mi
8:00 AM77 °FPartly sunny.9 mph89%29.89 "HgN/A
7:00 AM77 °FPartly sunny.6 mph89%29.86 "HgN/A
Weather by CustomWeather, © 2014

See weather overviewHow to use our weather pages